Location: Poughquag
(41.6090°N, 73.6820°W)
Time: 10:06:03
(UTC-05:00)

SR - Pass Details

Date: 12 December 2023
Orbit: 574 x 868 km, 66.7° (Epoch: 25 February)

Event Time Altitude Azimuth Distance (km) Brightness Sun altitude
Rises 19:24:58 0° 319° (NW) 3,420 ? -32.8°
Reaches altitude 10° 19:27:49 10° 308° (NW) 2,450 ? -33.3°
Maximum altitude 19:32:30 27° 253° (WSW) 1,489 ? -34.2°
Enters shadow 19:35:36 16° 206° (SSW) 1,918 ? -34.8°
Drops below altitude 10° 19:36:55 10° 196° (SSW) 2,295 - -35.0°
Sets 19:39:31 0° 184° (S) 3,164 - -35.5°
